This is the latest recevied weather packets stored in our database for station/object SP6PWT-13. If no packets are shown the sender has not sent any weather packets the latest 10 day(s).
| Time | Temp. | Humidity | Pressure | Rain* | Wind** | Luminosity | Snow |
|---|---|---|---|---|---|---|---|
| 1777613042 | 10° C | 60% | 1011.8 hPa | 0 mm | - | 39 W/m² | - |
| 1777612742 | 10° C | 60% | 1011.8 hPa | 0 mm | - | 38 W/m² | - |
| 1777612442 | 10° C | 61% | 1011.7 hPa | 0 mm | - | 38 W/m² | - |
| 1777612141 | 10° C | 61% | 1011.8 hPa | 0 mm | - | 37 W/m² | - |
| 1777611841 | 10° C | 61% | 1011.6 hPa | 0 mm | - | 36 W/m² | - |
| 1777611540 | 9.44° C | 62% | 1011.7 hPa | 0 mm | - | 37 W/m² | - |
| 1777611239 | 9.44° C | 62% | 1011.5 hPa | 0 mm | - | 76 W/m² | - |
| 1777610939 | 9.44° C | 63% | 1011.7 hPa | 0 mm | - | 69 W/m² | - |
| 1777610638 | 9.44° C | 63% | 1011.6 hPa | 0 mm | - | 61 W/m² | - |
| 1777610338 | 9.44° C | 63% | 1011.5 hPa | 0 mm | - | 54 W/m² | - |
| 1777610038 | 9.44° C | 64% | 1011.8 hPa | 0 mm | - | 48 W/m² | - |
| 1777609727 | 9.44° C | 63% | 1011.6 hPa | 0 mm | - | 43 W/m² | - |
| 1777609426 | 8.89° C | 63% | 1011.6 hPa | 0 mm | - | 38 W/m² | - |
| 1777609116 | 8.89° C | 64% | 1011.7 hPa | 0 mm | - | 33 W/m² | - |
| 1777608816 | 8.89° C | 64% | 1011.6 hPa | 0 mm | - | 28 W/m² | - |
| 1777608516 | 8.89° C | 64% | 1011.4 hPa | 0 mm | - | 24 W/m² | - |
| 1777608215 | 8.89° C | 64% | 1011.5 hPa | 0 mm | - | 21 W/m² | - |
| 1777607915 | 8.89° C | 64% | 1011.4 hPa | 0 mm | - | 18 W/m² | - |
| 1777607615 | 8.89° C | 64% | 1011.4 hPa | 0 mm | - | 15 W/m² | - |
| 1777607314 | 8.89° C | 65% | 1011.4 hPa | 0 mm | - | 12 W/m² | - |
| 1777607014 | 8.89° C | 65% | 1011.3 hPa | 0 mm | - | 10 W/m² | - |
| 1777606714 | 8.89° C | 65% | 1011.4 hPa | 0 mm | - | 7 W/m² | - |
| 1777606413 | 8.89° C | 65% | 1011.4 hPa | 0 mm | - | 5 W/m² | - |
| 1777606113 | 8.89° C | 65% | 1011.5 hPa | 0 mm | - | 3 W/m² | - |
| 1777605813 | 8.89° C | 65% | 1011.4 hPa | 0 mm | - | 2 W/m² | - |
* Rain latest hour (hover to see other rain measurements)
** Current wind speed in m/s (hover to see current wind gust speed)